Weather History for Port Angeles, WA

Change the Weather History Date:

Tuesday, December 3, 2013

  Actual Average Record
Temperature  
Mean Temperature 32 °F -  
Max Temperature 37 °F 47 °F 57 °F (1958)
Min Temperature 26 °F 37 °F 26 °F (1986)
Degree Days  
Heating Degree Days 34    
Moisture  
Dew Point 18 °F    
Average Humidity 56    
Maximum Humidity 78    
Minimum Humidity 38    
Precipitation  
Precipitation 0.00 in - - ()
Sea Level Pressure  
Sea Level Pressure 30.31 in    
Wind  
Wind Speed 5 mph (SSE)    
Max Wind Speed 9 mph    
Max Gust Speed -    
Visibility 10 miles    
Events      
Averages and records for this station are not official NWS values.
T = Trace of Precipitation, MM = Missing Value Source: NWS Daily Summary

Daily Weather History Graph

Daily Weather History Graph

Search for Another Location

Airport:

Trip Planner

Search our weather history database for the weather conditions in past years. The results will help you decide how hot, cold, wet, or windy it might be!

Date:

Astronomy

Dec. 03, 2013 Rise Set
Actual Time 7:46 AM PST 4:21 PM PST
Civil Twilight 7:10 AM PST 4:57 PM PST
Nautical Twilight 6:31 AM PST 5:36 PM PST
Astronomical Twilight 5:53 AM PST 6:14 PM PST
Moon 8:19 AM PST (12/3) 5:33 PM PST (12/3)
Length of Visible Light 9h 47m
Length of Day
8h 35m
New Moon, 1% of the Moon is Illuminated
Dec 3
New Moon
Dec 9
First Quarter
Dec 17
Full
Dec 25
Last Quarter
Jan 1
New

Hourly Weather History & Observations

Time (PST) Temp. Windchill Dew Point Humidity Pressure Visibility Wind Dir Wind Speed Gust Speed Precip Events Conditions
12:53 AM 36.0 °F 30.3 °F 19.9 °F 52% 30.18 in 10.0 mi ESE 6.9 mph - N/A   Overcast
1:53 AM 35.1 °F 31.0 °F 17.1 °F 48% 30.19 in 10.0 mi Variable 4.6 mph - N/A   Overcast
2:53 AM 30.0 °F 25.2 °F 19.9 °F 66% 30.21 in 10.0 mi SW 4.6 mph - N/A   Clear
3:53 AM 30.9 °F - 19.9 °F 64% 30.23 in 10.0 mi Calm Calm - N/A   Clear
4:53 AM 32.0 °F 28.7 °F 19.0 °F 59% 30.25 in 10.0 mi Variable 3.5 mph - N/A   Clear
5:53 AM 30.0 °F 24.1 °F 19.0 °F 64% 30.27 in 10.0 mi WSW 5.8 mph - N/A   Clear
6:53 AM 30.9 °F - 18.0 °F 59% 30.28 in 10.0 mi Calm Calm - N/A   Clear
7:53 AM 28.9 °F 25.2 °F 18.0 °F 64% 30.30 in 10.0 mi SW 3.5 mph - N/A   Clear
8:53 AM 34.0 °F 31.0 °F 16.0 °F 48% 30.33 in 10.0 mi Variable 3.5 mph - N/A   Clear
9:53 AM 35.1 °F 31.0 °F 19.0 °F 52% 30.35 in 10.0 mi WSW 4.6 mph - N/A   Clear
10:53 AM 37.0 °F 31.0 °F 17.1 °F 44% 30.34 in 10.0 mi West 8.1 mph - N/A   Clear
11:53 AM 37.9 °F - 16.0 °F 41% 30.34 in 10.0 mi Calm Calm - N/A   Clear
12:53 PM 37.9 °F 31.5 °F 15.1 °F 39% 30.34 in 10.0 mi East 9.2 mph - N/A   Clear
1:53 PM 37.9 °F 33.5 °F 14.0 °F 38% 30.32 in 10.0 mi SE 5.8 mph - N/A   Clear
2:53 PM 37.9 °F 31.5 °F 15.1 °F 39% 30.32 in 10.0 mi East 9.2 mph - N/A   Clear
3:53 PM 35.1 °F 30.1 °F 16.0 °F 46% 30.32 in 10.0 mi ESE 5.8 mph - N/A   Clear
4:53 PM 32.0 °F 27.5 °F 17.1 °F 54% 30.32 in 10.0 mi ESE 4.6 mph - N/A   Clear
5:53 PM 30.0 °F 24.1 °F 17.1 °F 59% 30.33 in 10.0 mi SE 5.8 mph - N/A   Clear
6:53 PM 30.9 °F - 17.1 °F 57% 30.34 in 10.0 mi Calm Calm - N/A   Clear
7:53 PM 27.0 °F 23.0 °F 19.9 °F 75% 30.35 in 10.0 mi SSW 3.5 mph - N/A   Clear
8:53 PM 28.0 °F 20.0 °F 19.0 °F 69% 30.35 in 10.0 mi SE 8.1 mph - N/A   Clear
9:53 PM 30.0 °F 22.4 °F 19.0 °F 64% 30.36 in 10.0 mi ESE 8.1 mph - N/A   Clear
10:53 PM 26.1 °F 19.4 °F 19.0 °F 75% 30.36 in 10.0 mi SSE 5.8 mph - N/A   Clear
11:53 PM 26.1 °F 19.4 °F 19.9 °F 78% 30.36 in 10.0 mi SSE 5.8 mph - N/A   Clear